Overview Statistics Trail Chart Weather Telemetry Raw packets
 

This is the latest recevied weather packets stored in our database for station/object K7KAR-2. If no packets are shown the sender has not sent any weather packets the latest 10 day(s).

<< 98 99 100 101 102 103 104 >>
Time Temp. Humidity Pressure Rain* Wind** Luminosity Snow
1787879499 25° C 41% 1014.7 hPa 0 mm - 31 W/m² -
1787879195 23.89° C 43% 1014.5 hPa 0 mm - 27 W/m² -
1787878892 23.89° C 44% 1014.3 hPa 0 mm - 22 W/m² -
1787878591 23.89° C 46% 1013.9 hPa 0 mm - 18 W/m² -
1787878286 23.89° C 44% 1013.9 hPa 0 mm - 13 W/m² -
1787877982 23.89° C 48% 1014.7 hPa 0 mm - 8 W/m² -
1787877677 23.89° C 48% 1015.3 hPa 0 mm - 6 W/m² -
1787877373 22.78° C 51% 1016.1 hPa 0 mm - 5 W/m² -
1787877068 22.22° C 56% 1016.5 hPa 1.78 mm - 6 W/m² -
1787876762 22.78° C 57% 1016.3 hPa 1.78 mm - 6 W/m² -
1787876457 22.78° C 54% 1016.1 hPa 1.27 mm - 5 W/m² -
1787876156 21.11° C 64% 1016.4 hPa 4.83 mm - 5 W/m² -
1787875851 21.67° C 64% 1016.8 hPa 7.11 mm - 5 W/m² -
1787875550 23.33° C 58% 1015.6 hPa 8.89 mm - 6 W/m² -
1787875245 25° C 46% 1015.5 hPa 4.83 mm - 6 W/m² -
1787874943 30.56° C 30% 1014.6 hPa 0 mm - 5 W/m² -
1787874638 31.11° C 23% 1014.6 hPa 0 mm - 6 W/m² -
1787874337 31.67° C 23% 1014 hPa 0 mm - 8 W/m² -
1787874032 31.67° C 22% 1013.9 hPa 0 mm - 11 W/m² -
1787873731 31.67° C 22% 1013.7 hPa 0 mm - 16 W/m² -
1787873427 32.22° C 21% 1013.2 hPa 0 mm - 23 W/m² -
1787873121 32.22° C 21% 1013.3 hPa 0 mm - 35 W/m² -
1787872815 32.78° C 21% 1013.4 hPa 0 mm - 49 W/m² -
1787872511 32.78° C 20% 1013.5 hPa 0 mm - 67 W/m² -
1787872206 32.78° C 20% 1013.4 hPa 0 mm - 89 W/m² -

* Rain latest hour (hover to see other rain measurements)
** Current wind speed in m/s (hover to see current wind gust speed)